Location: Eastmont
(37.7691°N, 122.1722°W)
Time: 09:40:25
(UTC+00:00)

Daily predictions for brighter satellites

Satellite Brightness Start Highest point End
(mag) Time Altitude Azimuth Time Altitude Azimuth Time Altitude Azimuth
GPS 2-05 Rocket1 4.0 12:03:27 23° SSE 12:03:34 23° SSE 12:05:59 10° ESE
Cosmos 482 Debris 3.4 12:09:04 45° N 12:09:04 45° N 12:10:59 10° NE
GENESIS II 4.5 12:08:05 10° NNW 12:12:12 74° ENE 12:16:13 10° SE
Cosmos 2221 2.5 12:10:08 18° SSW 12:13:18 68° W 12:17:41 10° N
Cosmos 1503 Rocket 4.2 12:10:12 10° NNW 12:15:32 77° ENE 12:20:46 10° SSE
Meteor 1-31 Rocket 4.3 12:14:24 10° NNE 12:18:04 37° E 12:21:44 10° SSE
Cosmos 1238 Rocket 3.1 12:16:04 10° NNW 12:18:53 30° W 12:19:30 28° WSW
ADEOS 3.8 12:14:42 10° N 12:19:46 52° WNW 12:23:53 15° SW
Tsikada Rocket 4.3 12:13:48 10° S 12:20:05 70° E 12:26:19 10° NNE
ADEOS II 3.9 12:18:45 10° NNW 12:21:25 14° WNW 12:22:50 13° W
Cosmos 1891 Rocket 4.4 12:17:56 10° NNW 12:23:55 65° W 12:29:55 10° S
Cosmos 1340 Rocket 3.0 12:20:16 10° S 12:24:19 79° E 12:28:24 10° NNE
Cosmos 1513 Rocket 4.4 12:18:35 10° NNW 12:24:35 65° W 12:30:33 10° S
Cosmos 1842 Rocket 4.3 12:22:56 21° SW 12:25:05 32° WNW 12:29:02 10° NNW
PSLV R/B 4.1 12:21:15 10° S 12:25:20 49° W 12:29:27 10° NNW
Cosmos 1455 3.6 12:24:58 19° W 12:25:29 19° WNW 12:28:15 10° NNW
Cosmos 1943 3.3 12:20:06 10° NNW 12:25:37 52° WSW 12:31:06 10° S
H-2A R/B 2.7 12:24:16 10° N 12:28:17 47° WNW 12:31:27 14° SW
RESURS DK-1 2.8 12:25:17 10° NW 12:29:08 39° WSW 12:32:58 10° S
CRYOSAT 2 4.4 12:25:35 10° S 12:30:24 61° W 12:35:15 10° NNW
CZ-2C R/B 2.7 12:26:31 10° NNE 12:31:04 63° ESE 12:35:40 10° S
Cosmos 2285 Rocket 4.4 12:25:46 10° NNW 12:31:39 40° W 12:37:32 10° SSW
Cosmos 1603 4.4 12:28:33 10° NW 12:33:25 30° WSW 12:38:16 10° SSW
Cosmos 1818 3.6 12:29:52 10° SSW 12:35:13 88° WNW 12:40:44 10° NNE
ATLAS CENTAUR R/B 2.1 12:31:00 10° SSW 12:35:52 68° ESE 12:40:50 10° NE
Cosmos 1500 Rocket 3.9 12:32:15 10° NNW 12:36:20 42° W 12:40:24 10° SSW
Cosmos 1408 3.7 12:35:05 10° NW 12:37:58 23° W 12:40:13 13° SW
Cosmos 1844 Rocket 3.0 12:34:00 10° SSW 12:39:37 72° ESE 12:45:17 10° NNE
Cosmos 1825 2.9 12:36:35 10° NNW 12:39:58 31° W 12:43:21 10° SSW
Meteor 2-2 Rocket 4.2 12:34:42 10° SSW 12:40:19 73° W 12:46:01 10° N
Cosmos 292 Rocket 4.4 12:35:47 10° S 12:40:31 58° ESE 12:45:16 10° NNE
CZ-4B R/B 3.0 12:41:06 10° NNE 12:45:12 89° E 12:49:29 10° SSW
Sich 1 3.5 12:43:04 10° N 12:47:30 68° E 12:51:54 10° SSE
Cosmos 968 Rocket 3.7 12:46:57 10° NNW 12:51:56 50° WSW 12:56:56 10° S
Elektron 3 3.8 12:50:44 10° SSW 12:53:57 79° SE 12:56:54 10° NE
CZ-4B R/B 3.9 12:50:27 10° N 12:54:38 74° WNW 12:58:35 10° SSW
MSX 4.0 12:49:13 10° N 12:54:49 53° WNW 13:00:23 10° SSW
Cosmos 1484 Rocket 4.4 12:51:30 10° NNE 12:55:12 38° E 12:58:49 10° SSE
IDEFIX/ARIANE 42P 3.5 12:52:00 10° N 12:56:33 31° WNW 13:01:05 10° SW
ISS -1.4 12:55:21 10° S 12:57:53 20° SE 13:00:25 10° E
Cosmos 1354 Rocket 4.3 12:53:18 10° NNW 12:58:22 46° WSW 13:03:21 10° S
Cosmos 1607 4.0 12:52:16 10° SSW 12:58:30 88° WNW 13:04:42 10° NNE
Cosmos 921 Rocket 4.2 12:56:59 10° WSW 13:00:27 24° WNW 13:03:59 10° NNW
Cosmos 2263 Rocket 3.9 12:58:05 10° W 13:01:39 17° NW 13:05:16 10° NNW
DELTA 2 R/B(2) 4.0 12:58:52 10° WNW 13:01:49 67° N 13:04:27 10° E
Aureole 1 4.2 13:01:16 10° SSW 13:04:14 67° WNW 13:07:32 10° NNE
